FW7665 Weather Reports


Display with metric or nautical units.
time (UTC)temp
F
wind
direction
speed
MPH
gust
MPH
rain 1hr
in
rain 24hr
in
rain mn
in
humidity
%
barometer
mb
20260906223608 74 94 3.0 9.0 0.00 0.05 0.00 46 1022.8
20260906222707 74 103 3.0 11.0 0.00 0.05 0.00 45 1022.8
20260906221808 74 103 3.0 9.0 0.00 0.05 0.00 44 1022.8
20260906220907 75 98 3.0 9.0 0.00 0.05 0.00 43 1022.8
20260906220021 74 94 2.0 6.0 0.00 0.05 0.00 45 1022.8
20260906215408 74 111 3.0 8.0 0.00 0.05 0.00 45 1022.8
20260906214507 74 47 2.0 6.0 0.00 0.05 0.00 46 1022.8
20260906213608 74 96 2.0 9.0 0.00 0.05 0.00 45 1022.8
20260906212728 74 143 2.0 9.0 0.00 0.05 0.00 44 1022.8
20260906211808 74 104 4.0 9.0 0.00 0.05 0.00 46 1022.8
20260906210909 75 82 3.0 8.0 0.00 0.05 0.00 44 1022.8
20260906210008 75 105 2.0 8.0 0.00 0.05 0.00 45 1022.8
20260906205408 75 94 1.0 4.0 0.00 0.05 0.00 46 1022.9
20260906204507 74 108 2.0 6.0 0.00 0.05 0.00 45 1022.9
20260906203607 75 110 2.0 9.0 0.00 0.05 0.00 45 1022.9
20260906202707 74 132 1.0 5.0 0.00 0.05 0.00 47 1022.9
20260906201829 75 191 1.0 5.0 0.00 0.05 0.00 44 1022.9
20260906200907 77 118 3.0 7.0 0.00 0.05 0.00 43 1022.9
20260906200008 79 141 2.0 6.0 0.00 0.05 0.00 37 1022.9
20260906195407 78 107 3.0 8.0 0.00 0.05 0.00 38 1024.1
20260906194506 80 93 3.0 8.0 0.00 0.05 0.00 38 1024.1
20260906193608 80 105 3.0 7.0 0.00 0.05 0.00 34 1024.1
20260906192728 81 109 3.0 8.0 0.00 0.05 0.00 34 1024.1
20260906191828 80 115 3.0 8.0 0.00 0.05 0.00 37 1024.1
20260906190927 81 100 3.0 7.0 0.00 0.05 0.00 33 1024.1
20260906190007 80 100 2.0 12.0 0.00 0.05 0.00 38 1024.1
20260906185407 80 109 2.0 12.0 0.00 0.05 0.00 37 1024.1
20260906184507 81 100 2.0 9.0 0.00 0.05 0.00 37 1024.1
20260906183607 79 105 2.0 8.0 0.00 0.05 0.00 39 1024.1
20260906182706 80 119 5.0 12.0 0.00 0.05 0.00 33 1024.1
20260906181807 80 103 2.0 7.0 0.00 0.05 0.00 35 1024.1
20260906180906 79 113 3.0 11.0 0.00 0.05 0.00 35 1024.1
20260906180007 79 118 3.0 9.0 0.00 0.05 0.00 36 1025.1
20260906175407 80 122 3.0 11.0 0.00 0.05 0.00 33 1025.1
20260906174506 79 118 3.0 8.0 0.00 0.05 0.00 33 1025.1
20260906173607 79 118 2.0 8.0 0.00 0.05 0.00 34 1025.1
20260906172706 78 121 1.0 4.0 0.00 0.05 0.00 32 1025.1
20260906171807 78 110 2.0 7.0 0.00 0.05 0.00 38 1025.1
20260906170906 77 101 1.0 6.0 0.00 0.05 0.00 36 1025.1
20260906170013 76 70 0.0 3.0 0.00 0.05 0.00 34 1025.1
20260906165407 76 86 1.0 4.0 0.00 0.05 0.00 37 1026.1
20260906164506 75 129 0.0 4.0 0.00 0.05 0.00 38 1026.1
20260906163607 74 115 1.0 5.0 0.00 0.05 0.00 40 1026.1
20260906162706 73 103 1.0 7.0 0.00 0.05 0.00 42 1026.1
20260906161807 72 85 0.0 2.0 0.00 0.05 0.00 45 1026.1
20260906160906 70 89 0.0 4.0 0.00 0.05 0.00 43 1026.1
20260906160007 67 0 0.0 0.0 0.00 0.05 0.00 48 1026.1
20260906155407 67 0 0.0 0.0 0.00 0.05 0.00 54 1026.1
20260906154506 66 172 0.0 2.0 0.00 0.05 0.00 56 1026.1
20260906153606 61 0 0.0 0.0 0.00 0.05 0.00 77 1026.1
20260906152707 60 0 0.0 0.0 0.00 0.05 0.00 78 1026.1
20260906151807 54 0 0.0 0.0 0.00 0.05 0.00 90 1026.1
20260906150906 53 0 0.0 0.0 0.00 0.05 0.00 90 1026.1
20260906150008 52 0 0.0 0.0 0.00 0.05 0.00 89 1026.1
20260906145407 52 0 0.0 0.0 0.00 0.05 0.00 90 1026.1
20260906144505 51 0 0.0 0.0 0.00 0.05 0.00 90 1026.1
20260906143606 50 0 0.0 0.0 0.00 0.05 0.00 90 1026.1
20260906142705 50 0 0.0 0.0 0.00 0.05 0.00 90 1026.1
20260906141806 49 0 0.0 0.0 0.00 0.05 0.00 91 1026.1
20260906140905 49 0 0.0 0.0 0.00 0.05 0.00 90 1026.1
20260906140007 48 0 0.0 0.0 0.00 0.05 0.00 91 1025.9
20260906135406 48 0 0.0 0.0 0.00 0.05 0.00 91 1025.9
20260906134505 47 0 0.0 0.0 0.00 0.05 0.00 91 1025.9
20260906133627 47 0 0.0 0.0 0.00 0.05 0.00 90 1025.9
20260906132705 47 0 0.0 0.0 0.00 0.05 0.00 90 1025.9
20260906131806 47 0 0.0 0.0 0.00 0.05 0.00 90 1025.9
20260906130905 47 0 0.0 0.0 0.00 0.05 0.00 90 1025.9
20260906130019 47 0 0.0 0.0 0.00 0.05 0.00 90 1025.9
20260906125406 47 0 0.0 0.0 0.00 0.05 0.00 90 1025.9
20260906124526 47 0 0.0 0.0 0.00 0.05 0.00 90 1025.9
20260906123627 47 0 0.0 0.0 0.00 0.05 0.00 90 1025.9
20260906122705 47 0 0.0 0.0 0.00 0.05 0.00 90 1025.9
20260906121806 47 0 0.0 0.0 0.00 0.05 0.00 90 1025.9
20260906120905 47 0 0.0 0.0 0.00 0.05 0.00 90 1025.9
20260906120007 47 0 0.0 0.0 0.00 0.05 0.00 90 1025.9
20260906115406 47 0 0.0 0.0 0.00 0.05 0.00 90 1025.9
20260906114505 47 0 0.0 0.0 0.00 0.05 0.00 89 1025.9
20260906113627 47 0 0.0 0.0 0.00 0.05 0.00 89 1025.9
20260906112705 47 0 0.0 0.0 0.00 0.05 0.00 89 1025.9
20260906111809 47 0 0.0 0.0 0.00 0.05 0.00 89 1025.9
20260906110905 48 0 0.0 0.0 0.00 0.05 0.00 89 1025.9
20260906110027 48 0 0.0 0.0 0.00 0.05 0.00 89 1025.9
20260906105407 48 0 0.0 0.0 0.00 0.05 0.00 88 1025.9
20260906104506 48 0 0.0 0.0 0.00 0.05 0.00 88 1025.9
20260906103606 48 0 0.0 0.0 0.00 0.05 0.00 88 1025.9
20260906102706 49 0 0.0 0.0 0.00 0.05 0.00 88 1025.9
20260906101826 49 0 0.0 0.0 0.00 0.05 0.00 88 1025.9
20260906100904 49 0 0.0 0.0 0.00 0.05 0.00 87 1025.9
20260906095404 49 0 0.0 0.0 0.00 0.05 0.00 87 1024.1
20260906094504 49 0 0.0 0.0 0.00 0.05 0.00 87 1024.1
20260906093627 49 0 0.0 0.0 0.00 0.05 0.00 87 1024.1
20260906092705 50 0 0.0 0.0 0.00 0.05 0.00 87 1024.1
20260906091805 50 0 0.0 0.0 0.00 0.05 0.00 87 1024.1
20260906090906 50 0 0.0 0.0 0.00 0.05 0.00 87 1024.1
20260906090006 50 0 0.0 0.0 0.00 0.05 0.00 88 1024.1
20260906085404 50 0 0.0 0.0 0.00 0.05 0.00 88 1024.1
20260906084526 50 0 0.0 0.0 0.00 0.05 0.00 87 1024.1
20260906083604 51 0 0.0 0.0 0.00 0.05 0.00 88 1024.1
20260906082706 51 0 0.0 0.0 0.00 0.05 0.00 87 1024.1
20260906081804 51 0 0.0 0.0 0.00 0.05 0.00 87 1024.1
20260906080905 52 0 0.0 0.0 0.00 0.05 0.00 87 1024.1
20260906080005 52 0 0.0 0.0 0.00 0.05 0.00 87 1024.1
20260906075407 52 0 0.0 0.0 0.00 0.05 0.00 87 1024.1
20260906074526 52 0 0.0 0.0 0.00 0.05 0.00 87 1024.1
20260906073604 52 0 0.0 0.0 0.00 0.05 0.00 87 1024.1
20260906072704 52 0 0.0 0.0 0.00 0.05 0.00 87 1024.1
20260906071804 52 0 0.0 0.0 0.00 0.05 0.00 87 1024.1
20260906070905 52 0 0.0 0.0 0.00 0.05 0.00 86 1024.1
20260906070007 52 0 0.0 0.0 0.00 0.05 0.00 86 1024.1
20260906065404 52 0 0.0 0.0 0.00 0.05 0.00 86 1024.1
20260906064504 53 0 0.0 0.0 0.00 0.05 0.00 86 1024.1
20260906063625 53 0 0.0 0.0 0.00 0.05 0.00 87 1024.1
20260906062705 53 0 0.0 0.0 0.00 0.05 0.00 87 1024.1
20260906061804 54 0 0.0 0.0 0.00 0.05 0.00 86 1024.1
20260906060905 54 0 0.0 0.0 0.00 0.05 0.00 87 1024.1
20260906060010 54 0 0.0 0.0 0.00 0.05 0.00 87 1024.1
20260906055404 55 57 0.0 1.0 0.00 0.05 0.05 87 1024.1
20260906054505 55 57 0.0 2.0 0.00 0.05 0.05 88 1024.1
20260906053624 55 0 0.0 0.0 0.00 0.05 0.05 89 1024.1
20260906052705 55 0 0.0 0.0 0.00 0.05 0.05 89 1024.1
20260906051803 55 65 0.0 4.0 0.00 0.05 0.05 89 1024.1
20260906050905 55 257 0.0 2.0 0.00 0.05 0.05 89 1024.1
20260906050004 55 0 0.0 0.0 0.00 0.05 0.05 89 1024.1
20260906045403 55 0 0.0 0.0 0.00 0.05 0.05 89 1024.1
20260906044526 55 0 0.0 0.0 0.00 0.05 0.05 89 1024.1
20260906043624 55 0 0.0 0.0 0.00 0.05 0.05 90 1024.1
20260906042705 55 0 0.0 0.0 0.00 0.05 0.05 89 1024.1
20260906041803 55 0 0.0 0.0 0.00 0.05 0.05 89 1024.1
20260906040925 55 0 0.0 0.0 0.00 0.05 0.05 89 1024.1
20260906040010 55 0 0.0 0.0 0.00 0.05 0.05 89 1024.1
20260906035409 55 0 0.0 0.0 0.00 0.05 0.05 89 1024.1
20260906034529 55 258 0.0 1.0 0.00 0.05 0.05 89 1024.1
20260906033609 54 209 0.0 4.0 0.00 0.05 0.05 89 1024.1
20260906032708 54 178 0.0 2.0 0.00 0.05 0.05 89 1024.1
20260906031809 54 0 0.0 0.0 0.00 0.05 0.05 88 1024.1
20260906030908 54 0 0.0 0.0 0.01 0.05 0.05 87 1024.1
20260906030010 54 0 0.0 0.0 0.01 0.05 0.05 87 1024.1
20260906025409 54 0 0.0 0.0 0.01 0.05 0.05 86 1024.1
20260906024508 54 0 0.0 0.0 0.01 0.05 0.05 85 1024.1
20260906023609 55 0 0.0 0.0 0.01 0.05 0.05 85 1024.1
20260906022729 55 0 0.0 0.0 0.01 0.05 0.05 84 1024.1
20260906021811 56 0 0.0 0.0 0.01 0.05 0.05 84 1024.1
20260906020929 56 0 0.0 0.0 0.00 0.04 0.04 84 1024.1
20260906020009 57 0 0.0 0.0 0.04 0.04 0.04 82 1024.1
20260906015409 58 0 0.0 0.0 0.04 0.04 0.04 81 1024.1
20260906014508 59 0 0.0 0.0 0.04 0.04 0.04 79 1024.1
20260906013609 60 0 0.0 0.0 0.04 0.04 0.04 78 1024.1
20260906012729 61 0 0.0 0.0 0.04 0.04 0.04 76 1024.1
20260906011809 62 0 0.0 0.0 0.04 0.04 0.04 73 1024.1
20260906010908 65 0 0.0 0.0 0.04 0.04 0.04 69 1024.1
20260906010009 68 274 0.0 2.0 0.00 0.00 0.00 55 1024.1
20260906005414 68 280 1.0 3.0 0.00 0.00 0.00 47 1024.1
20260906004513 68 281 1.0 2.0 0.00 0.00 0.00 46 1024.1
20260906003614 69 272 0.0 2.0 0.00 0.00 0.00 47 1024.1
20260906002734 69 272 1.0 6.0 0.00 0.00 0.00 42 1024.1
20260906001813 69 266 1.0 4.0 0.00 0.00 0.00 43 1024.1
20260906000933 69 260 2.0 7.0 0.00 0.00 0.00 42 1024.1
20260906000014 70 275 2.0 7.0 0.00 0.00 0.00 42 1024.1
20260905235413 70 282 2.0 7.0 0.00 0.00 0.00 42 1024.1
20260905234512 70 275 1.0 5.0 0.00 0.00 0.00 44 1024.1
20260905233614 71 259 1.0 2.0 0.00 0.00 0.00 42 1024.1
20260905232712 71 297 1.0 3.0 0.00 0.00 0.00 36 1024.1
20260905231817 72 13 1.0 5.0 0.00 0.00 0.00 37 1024.1
20260905230912 72 264 2.0 5.0 0.00 0.00 0.00 35 1024.1
20260905230014 72 254 2.0 8.0 0.00 0.00 0.00 40 1024.1
20260905225413 72 259 1.0 8.0 0.00 0.00 0.00 38 1024.1
20260905224533 72 245 1.0 2.0 0.00 0.00 0.00 36 1024.2